Regional Weather Roundup
Issued by NWS Cleveland, OH

Home | Current Version | Previous Version | Text Only | Print | Product List | Glossary Off
Versions: 1 2 3 4 5 6 7 8 9 10 11 12 13 14 15 16 17 18 19 20 21 22 23 24 25 26 27 28 29 30 31 32 33 34 35 36 37 38 39 40 41 42 43 44 45 46 47 48 49 50

000
ASUS41 KCLE 290710
RWRCLE
OHIO REGIONAL WEATHER ROUNDUP
NATIONAL WEATHER SERVICE CLEVELAND, OH
300 AM EDT FRI APR 29 2016

NOTE: "FAIR" INDICATES FEW OR NO CLOUDS BELOW 12,000 FEET WITH NO
SIGNIFICANT WEATHER AND/OR OBSTRUCTIONS TO VISIBILITY.

OHZ001>008-015>018-024>027-034-035-043-044-290800-
   NORTHWEST OHIO

CITY           SKY/WX    TMP DP  RH WIND       PRES   REMARKS
DEFIANCE       CLOUDY    47  39  74 NW5       30.00S
FINDLAY        CLOUDY    47  40  76 N6        29.97S
TOLEDO EXPRESS CLOUDY    46  35  65 E8        29.99S
TOLEDO EXEC    CLOUDY    47  36  65 NE6       30.00S
LIMA           CLOUDY    44  43  96 NW5       29.97S
$$

OHZ009>014-019>023-028>033-038-089-290800-
   NORTHEAST OHIO

CITY           SKY/WX    TMP DP  RH WIND       PRES   REMARKS
CLE-HOPKINS    CLOUDY    47  44  90 NE7       29.98F
CLE-LAKEFRONT  LGT RAIN  47  43  86 NE7       29.96S
CUY CO. ARPT   NOT AVBL
LORAIN-ELYRIA  LGT RAIN  45  42  89 NE5       29.96F
ASHTABULA      CLOUDY    44  42  93 NE3       29.98S
AKRON-CANTON   LGT RAIN  46  44  93 NE5       29.94F FOG
WOOSTER        CLOUDY    47  45  93 CALM      29.94F
MANSFIELD      FOG       47  47 100 N5        29.95S VSB 1
YOUNGSTOWN     LGT RAIN  45  42  89 NE3       29.95R FOG
$$

OHZ042-051>053-060>062-070>072-077>081-290800-
  SOUTHWEST OHIO

CITY           SKY/WX    TMP DP  RH WIND       PRES   REMARKS
CINC-COVINGTON FOG       57  55  93 NW9       29.98R VSB 1/4
CINC-LUNKEN    CLOUDY    57  57 100 NW5       29.98R FOG
HAMILTON       CLOUDY    56  53  90 W6        29.99S FOG
DAYTON         CLOUDY    51  49  92 W5        29.98S FOG
WRIGHT-PAT AFB CLOUDY    52  52 100 W2        29.97S
DAYTON GENERAL CLOUDY    52  49  89 NW3       29.97S FOG
WILMINGTON     PTCLDY    51  50  96 NW6       29.96S FOG
$$

OHZ036-037-039>041-045>050-054>059-063>069-073>076-082>088-290800-
  CENTRAL AND SOUTHEAST OHIO

CITY           SKY/WX    TMP DP  RH WIND       PRES   REMARKS
COLUMBUS       CLOUDY    52  49  89 CALM      29.94S FOG
OSU AIRPORT    CLOUDY    51  49  92 NW10      29.95R FOG
BOLTON FIELD   CLOUDY    51  50  98 NW3       29.95S
RICKENBACK AFB CLOUDY    51  51  98 CALM      29.93F FOG
NEWARK         CLOUDY    54  49  83 CALM      29.93S
MARION         CLOUDY    47  46  97 NW7       29.96R FOG
LANCASTER      CLOUDY    55  53  93 S3        29.94S FOG
ZANESVILLE     CLOUDY    53  50  89 N5        29.93F FOG
NEW PHILLY     CLOUDY    48  44  86 E3        29.94F
$$




USA.gov is the U.S. government's official web portal to all federal, state and local government web resources and services.